Regional Weather Roundup
Issued by NWS

Home | Current Version | Previous Version | Text Only | Print | Product List | Glossary On
Versions: 1 2 3 4 5 6 7 8 9 10 11 12 13 14 15 16 17 18 19 20 21 22 23 24 25 26 27 28 29 30 31 32 33 34 35 36 37 38 39 40 41 42 43 44 45 46 47 48 49 50
000
ASUS44 KLIX 061501
RWRLA
LOUISIANA WEATHER ROUNDUP
NATIONAL WEATHER SERVICE NEW ORLEANS LA
900 AM CST FRI MAR 06 2015

NOTE: "FAIR" INDICATES FEW OR NO CLOUDS BELOW 12,000 FEET WITH NO
      SIGNIFICANT WEATHER AND/OR OBSTRUCTIONS TO VISIBILITY.
      SKY/WX - SKY CONDITION AND SIGNIFICANT WEATHER.
      TMP - AIR TEMPERATURE.    DP   - DEWPOINT TEMPERATURE.
      RH  - RELATIVE HUMIDITY.  PRES - PRESSURE.
      HX  - HEAT INDEX.         WCI  - WIND CHILL INDEX.

*  THESE STATIONS ARE NOT NWS OR FAA STATIONS AND ARE NOT UNDER
   NWS QUALITY CONTROL.

LAZ040-048-061>063-065-066-069-061600-
SOUTHEAST LOUISIANA

CITY           SKY/WX    TMP DP  RH WIND       PRES   REMARKS
N.O. AUDUBON     N/A     39  28  62 MISG        N/A
N.O. INTL ARPT PTSUNNY   36  23  59 N13G23    30.51R WCI  27
N.O. LAKEFRONT SUNNY     38  23  55 N18       30.51R WCI  28
SLIDELL        SUNNY     35  19  52 N10       30.50R WCI  27
BATON ROUGE    SUNNY     33  14  45 N10       30.56R WCI  25
BOOTHVILLE     NOT AVBL
BELLE CHASSE   NOT AVBL
BOGALUSA*        N/A     34  20  57 N9G18     30.54S WCI  26
GALLIANO*      SUNNY     40  28  61 N13G26    30.48R WCI  33
NEW ROADS*     NOT AVBL
GONZALES*      NOT AVBL
HAMMOND*       NOT AVBL
HOUMA*         MOSUNNY   36  25  64 N13G21    30.50R WCI  27
PORT FOURCHON* SUNNY     37  25  60 NE18      30.50R WCI  27

$$

LAZ041-044-053-054-061600-
SOUTHWEST LOUISIANA

CITY           SKY/WX    TMP DP  RH WIND       PRES   REMARKS
LAKE CHARLES   SUNNY     35  17  47 NE20G28   30.58R WCI  24
LAFAYETTE      SUNNY     35  14  42 N15       30.56R WCI  25
PATTERSON      SUNNY     36  16  44 N13       30.53R WCI  27
SALT POINT     NOT AVBL
NEW IBERIA     SUNNY     36  12  38 N20       30.56  WCI  25
CHENAULT AIRPK NOT AVBL

$$

LAZ027-028-061600-
CENTRAL LOUISIANA

CITY           SKY/WX    TMP DP  RH WIND       PRES   REMARKS
FORT POLK      MOSUNNY   33  15  46 NE10      30.59R WCI  25
ALEXANDRIA INT SUNNY     33  18  53 NE9       30.61R WCI  25
ALEXANDRIA     SUNNY     34  15  46 NE10      30.60R WCI  26

$$

LAZ001-002-061600-
NORTHWEST LOUISIANA

CITY           SKY/WX    TMP DP  RH WIND       PRES   REMARKS
SHREVEPORT     MOSUNNY   36  18  48 E6        30.62R WCI  31
BARKSDALE AFB  SUNNY     33  20  57 E5        30.63R WCI  29
DTN SHREVEPORT SUNNY     34  18  52 E5        30.63R WCI  30

$$

LAZ014-016-061600-
NORTHEAST LOUISIANA

CITY           SKY/WX    TMP DP  RH WIND       PRES   REMARKS
MONROE         SUNNY     32  18  56 NE12      30.65R WCI  23
TALLULAH       SUNNY     31  15  52 N10       30.63R WCI  22

$$



USA.gov is the U.S. government's official web portal to all federal, state and local government web resources and services.